• MPC Preparation (Info)

  • MPEC 2004-T57 : 2004 TP13

    The following Minor Planet Electronic Circular may be linked-to from your own Web pages, but must not otherwise be redistributed electronically.

    A form allowing access to any MPEC is at the bottom of this page.


    Read MPEC 2004-T56 Read MPEC 2004-T58


    M.P.E.C. 2004-T57                                Issued 2004 Oct. 11, 22:46 UT
    
         The Minor Planet Electronic Circulars contain information on unusual
             minor planets and routine data on comets.  They are published
       on behalf of Commission 20 of the International Astronomical Union by the
              Minor Planet Center, Smithsonian Astrophysical Observatory,
                              Cambridge, MA 02138, U.S.A.
    
                      Supported in part by the Brinson Foundation
                 Prepared using the Tamkin Foundation Computer Network
    
                                  MPC@CFA.HARVARD.EDU
              URL http://cfa-www.harvard.edu/iau/mpc.html  ISSN 1523-6714
    
                                       2004 TP13
    
    Observations:
         K04T13P* C2004 10 08.20580 23 08 18.00 -03 10 01.2          20.1   ET057704
         K04T13P  C2004 10 08.22260 23 07 57.90 -03 05 53.8          20.1   ET057704
         K04T13P  C2004 10 08.23588 23 07 41.96 -03 02 37.6          20.4   ET057704
         K04T13P  C2004 10 08.24826 23 07 27.14 -02 59 35.3          19.9   ET057704
         K04T13P  C2004 10 10.13908 22 32 39.85 +04 24 32.7          20.0   ET057704
         K04T13P  C2004 10 10.14895 22 32 29.33 +04 26 44.4          19.7   ET057704
         K04T13P  C2004 10 10.14977 22 32 28.33 +04 26 55.5          20.6   ET057704
         K04T13P  C2004 10 10.14988 22 32 28.31 +04 26 55.6          20.1   ET057704
         K04T13P  C2004 10 10.15975 22 32 17.75 +04 29 08.4          20.1   ET057704
         K04T13P  C2004 10 10.16057 22 32 16.83 +04 29 18.9          19.8   ET057704
         K04T13P  C2004 10 10.16067 22 32 16.83 +04 29 21.1          20.2   ET057704
         K04T13P  C2004 10 10.17056 22 32 06.16 +04 31 30.6          20.1   ET057704
         K04T13P  C2004 10 10.17137 22 32 05.20 +04 31 41.7          20.3   ET057704
         K04T13P  C2004 10 10.17148 22 32 05.25 +04 31 42.3          19.8   ET057704
         K04T13P  C2004 10 10.18216 22 31 53.75 +04 34 02.9          19.9   ET057704
         K04T13P  C2004 10 10.19214 22 31 43.14 +04 36 15.4          20.2   ET057704
         K04T13P 5C2004 10 11.20590 22 14 50.32 +08 09 10.2          19.8 R ET057673
         K04T13P 5C2004 10 11.20833 22 14 47.75 +08 09 39.8                 ET057673
         K04T13P 5C2004 10 11.20995 22 14 46.17 +08 09 59.9                 ET057673
         K04T13P 5C2004 10 11.21331 22 14 42.88 +08 10 40.3                 ET057673
    
    Observer details:
    673 Table Mountain Observatory, Wrightwood.  Observer J. Young.  0.6-m
        reflector + CCD.
    704 Lincoln Laboratory ETS, New Mexico.  Observers M. Blythe, F. Shelly,
        M. Bezpalko, R. Huber, L. Manguso, D. Torres, R. Kracke, M. McCleary,
        H. Stange, A. Milner.  Measurers J. Stuart, R. Sayer, J. Evans, J. Kommers.
        1.0-m f/2.15 reflector + CCD.
    
    Orbital elements:
    2004 TP13
    Epoch 2004 Oct. 2.0 TT = JDT 2453280.5                  MPC
    M 230.82155              (2000.0)            P               Q
    n   1.01173312     Peri.  136.92674     -0.83126871     -0.54004343
    a   0.9827101      Node    12.56772     +0.17656446     -0.48118199
    e   0.1594767      Incl.   37.24804     +0.52708379     -0.69051936
    P   0.97           H   22.9           G   0.15
    From 20 observations 2004 Oct. 8-11.
    
    Ephemeris:
    2004 TP13                a,e,i = 0.98, 0.16, 37                  q = 0.8260
    Date    TT    R. A. (2000) Decl.     Delta      r     Elong.  Phase     V
    2004 10 12    22 02.54   +10 41.8    0.108    1.076   133.7    42.2    19.9
    2004 10 13    21 48.19   +13 34.7    0.114    1.074   129.3    46.0    20.1
    2004 10 14    21 35.10   +16 07.4    0.121    1.072   125.3    49.5    20.3
    2004 10 15    21 23.18   +18 21.4    0.128    1.070   121.6    52.6    20.5
    2004 10 16    21 12.37   +20 18.7    0.135    1.067   118.2    55.4    20.7
    2004 10 17    21 02.57   +22 01.4    0.143    1.065   115.2    57.8    20.9
    2004 10 18    20 53.68   +23 31.4    0.151    1.063   112.4    60.0    21.1
    2004 10 19    20 45.62   +24 50.5    0.159    1.061   109.9    62.0    21.2
    2004 10 20    20 38.30   +26 00.3    0.168    1.059   107.6    63.7    21.4
    2004 10 21    20 31.64   +27 02.2    0.177    1.056   105.5    65.3    21.6
    2004 10 22    20 25.57   +27 57.3    0.185    1.054   103.5    66.6    21.7
    2004 10 23    20 20.03   +28 46.6    0.194    1.052   101.7    67.8    21.8
    2004 10 24    20 14.96   +29 30.9    0.203    1.049   100.1    68.9    22.0
    2004 10 25    20 10.31   +30 10.9    0.212    1.047    98.5    69.9    22.1
    2004 10 26    20 06.03   +30 47.2    0.222    1.045    97.1    70.8    22.2
    2004 10 27    20 02.09   +31 20.3    0.231    1.042    95.7    71.6    22.3
    2004 10 28    19 58.45   +31 50.6    0.240    1.040    94.4    72.3    22.4
    2004 10 29    19 55.08   +32 18.4    0.249    1.037    93.2    72.9    22.5
    2004 10 30    19 51.96   +32 44.1    0.258    1.035    92.1    73.5    22.6
    2004 10 31    19 49.05   +33 07.8    0.267    1.032    91.0    74.0    22.7
    2004 11 01    19 46.34   +33 29.9    0.276    1.030    90.0    74.5    22.8
    
    Timothy B. Spahr             (C) Copyright 2004 MPC           M.P.E.C. 2004-T57
    

    Read MPEC 2004-T56 Read MPEC 2004-T58


    MPEC number:

    Enter an MPEC number in one of the following forms:

    • 1997-B01 (the full form)
    • J97B01 (the packed version of the full form)
    • B01 (the abbreviated form)